TimeMST,TemperatureF,Dew PointF,Humidity,Sea Level PressureIn,VisibilityMPH,Wind Direction,Wind SpeedMPH,Gust SpeedMPH,PrecipitationIn,Events,Conditions,WindDirDegrees,DateUTC
12:53 AM,19.9,16.0,85,29.86,10.0,SSE,9.2,-,N/A,,Clear,160,2013-01-08 07:53:00
1:53 AM,24.1,14.0,65,29.84,10.0,Calm,Calm,-,N/A,,Clear,0,2013-01-08 08:53:00
2:53 AM,24.1,16.0,71,29.84,10.0,NE,4.6,-,N/A,,Clear,40,2013-01-08 09:53:00
3:53 AM,28.9,5.0,36,29.80,10.0,NNW,5.8,-,N/A,,Clear,340,2013-01-08 10:53:00
5:53 AM,21.9,-0.0,38,29.88,10.0,NNE,8.1,-,N/A,,Clear,20,2013-01-08 12:53:00
6:53 AM,28.0,-2.9,26,29.91,10.0,North,6.9,-,N/A,,Clear,10,2013-01-08 13:53:00
7:53 AM,26.1,-0.9,31,29.95,10.0,NNE,6.9,-,N/A,,Clear,20,2013-01-08 14:53:00
8:53 AM,33.1,3.0,28,29.94,10.0,North,8.1,-,N/A,,Clear,350,2013-01-08 15:53:00
9:53 AM,45.0,8.1,22,29.91,10.0,NNE,8.1,-,N/A,,Clear,30,2013-01-08 16:53:00
10:53 AM,52.0,-4.0,10,29.88,10.0,NNW,10.4,-,N/A,,Clear,340,2013-01-08 17:53:00
11:53 AM,54.0,-8.0,8,29.83,10.0,NNE,6.9,-,N/A,,Clear,30,2013-01-08 18:53:00
12:53 PM,54.0,-9.0,7,29.83,10.0,Variable,5.8,-,N/A,,Clear,0,2013-01-08 19:53:00
1:53 PM,55.0,-8.0,7,29.82,10.0,NE,3.5,-,N/A,,Clear,50,2013-01-08 20:53:00
2:53 PM,52.0,-2.0,11,29.88,10.0,ENE,18.4,25.3,N/A,,Clear,60,2013-01-08 21:53:00
3:53 PM,48.0,-2.0,13,29.92,10.0,ENE,18.4,-,N/A,,Clear,70,2013-01-08 22:53:00
4:53 PM,41.0,5.0,23,30.01,10.0,ENE,13.8,-,N/A,,Clear,60,2013-01-08 23:53:00
5:53 PM,36.0,3.9,26,30.09,10.0,NE,13.8,-,N/A,,Clear,40,2013-01-09 00:53:00
6:53 PM,30.9,5.0,33,30.11,10.0,North,12.7,-,N/A,,Clear,10,2013-01-09 01:53:00
7:53 PM,28.0,7.0,41,30.17,10.0,NE,12.7,-,N/A,,Clear,40,2013-01-09 02:53:00
8:53 PM,26.1,5.0,41,30.18,10.0,NNE,6.9,-,N/A,,Clear,20,2013-01-09 03:53:00
10:53 PM,26.1,7.0,44,30.15,10.0,NNE,6.9,-,N/A,,Clear,30,2013-01-09 05:53:00
11:53 PM,25.0,7.0,46,30.15,10.0,NE,4.6,-,N/A,,Clear,50,2013-01-09 06:53:00